Content
SEND FEEDBACK

Daily
Averages
Monthly
Summary
France

LILLE, FRANCE


Home > Europe > France
Elevation: 171 feet     Latitude: 50 34N     Longitude: 003 06E

WEATHER
 
SELECT A DAY
Number of Records: 278,767;   Date Range: 7/1/96 - 11/25/14
 
SHARE

PRINT THIS DATA

[ ← Previous Day ]
WEATHER ALMANAC - SEPTEMBER 26, 2013
[ Next Day → ]
[ °C ]   °F
Weather ElementAverageHighLow
Temperature61.1 °F66.2 °F (3:00 pm)55.4 °F (11:00 pm)
Dewpoint53.9 °F59 °F (1:00 am)48 °F (8:00 pm)
Humidity78.5 %100 % (3:30 am)52 % (5:00 pm)
Barometer29.98 in30.04 in (8:30 pm)29.89 in (1:00 am)
Wind Speed5.6 mph11.5 mph (11:00 am)
Weather ElementAverage
Visibility3.6 mi
Wind DirectionSSE (160.2 °)

Weather ElementTotal
Precipitation---
Heating Degree Days4.2 (Base 65)
Growing Degree Days10.8 (Base 50)
Averaged from 49 records on September 26, 2013
WEATHER CONDITIONS BREAKOUT
WIND DIRECTION BREAKOUT
WEATHER BY HOUR - SEPTEMBER 26, 2013
[ °C ]   °F
Local TimeTemperatureDewpointHumidityBarometerVisibilityWind DirectionWind SpeedGust SpeedPrecipitationEventsConditions
1:00 AM60.8 °F59.0 °F94 %29.89 in1.1 miVariable3.5 mphMostly Cloudy
2:00 AM60.0 °F58.0 °F93 %29.90 in1.0 miWest (280°)5.8 mphMist
2:00 AM60.8 °F59.0 °F94 %29.89 in0.9 miWest (280°)5.8 mphMostly Cloudy
2:30 AM60.8 °F59.0 °F94 %29.89 in0.6 miWest (260°)2.3 mphFogFog
3:00 AM60.8 °F59.0 °F94 %29.89 in0.7 miNW (320°)3.5 mphMist
3:30 AM59.0 °F59.0 °F100 %29.89 in0.7 miWNW (300°)3.5 mphFogFog
4:00 AM59.0 °F57.2 °F94 %29.89 in0.6 miNW (310°)4.6 mphFogFog
4:30 AM59.0 °F57.2 °F94 %29.89 in0.6 miNW (320°)3.5 mphFogFog
5:00 AM59.0 °F57.2 °F94 %29.92 in0.6 miWNW (290°)4.6 mphFogFog
5:30 AM57.2 °F57.2 °F100 %29.92 in0.4 miNW (320°)2.3 mphFogFog
6:00 AM59.0 °F57.2 °F94 %29.92 in0.5 miNW (310°)3.5 mphFogFog
6:30 AM59.0 °F59.0 °F100 %29.92 in0.6 miNorth (360°)3.5 mphFogFog
7:00 AM59.0 °F57.2 °F94 %29.92 in0.9 miVariable3.5 mphMostly Cloudy
7:30 AM59.0 °F57.2 °F94 %29.95 in0.6 miNW (320°)2.3 mphMostly Cloudy
8:00 AM59.0 °F58.0 °F95 %29.95 in1.0 miNNE (20°)4.6 mphMist
8:00 AM59.0 °F57.2 °F94 %29.95 in0.7 miNNE (20°)4.6 mphMostly Cloudy
8:30 AM59.0 °F59.0 °F100 %29.95 in0.7 miNorth (10°)8.1 mphMostly Cloudy
9:00 AM60.8 °F59.0 °F94 %29.98 in0.9 miNorth (10°)4.6 mphMostly Cloudy
9:30 AM60.8 °F59.0 °F94 %29.98 in1.2 miNNW (340°)3.5 mphMostly Cloudy
10:00 AM60.8 °F59.0 °F94 %29.98 in1.9 miNorth (10°)6.9 mphMostly Cloudy
10:30 AM60.8 °F57.2 °F88 %29.98 in1.9 miNorth (350°)9.2 mphMostly Cloudy
11:00 AM60.8 °F55.4 °F82 %30.01 in3.1 miNNE (30°)11.5 mphMostly Cloudy
11:30 AM60.8 °F55.4 °F82 %30.01 in3.7 miNNE (30°)10.4 mphMostly Cloudy
12:00 PM60.8 °F53.6 °F77 %30.01 in5.0 miNNE (30°)9.2 mphMostly Cloudy
12:30 PM62.6 °F53.6 °F72 %30.01 in5.0 miNorth (10°)10.4 mphMostly Cloudy
1:00 PM62.6 °F53.6 °F72 %30.01 in6.2 miNNE (20°)8.1 mphMostly Cloudy
1:30 PM62.6 °F53.6 °F72 %30.01 in6.2 miNorth (10°)6.9 mphMostly Cloudy
2:00 PM64.0 °F54.0 °F60 %30.03 in12.0 miNorth (350°)6.9 mphMostly Cloudy
2:00 PM64.4 °F55.4 °F73 %30.01 in6.2 miNorth (350°)6.9 mphScattered Clouds
2:30 PM64.4 °F51.8 °F64 %30.01 in6.2 miNorth (360°)4.6 mphScattered Clouds
3:00 PM66.2 °F51.8 °F60 %30.01 in6.2 miNorth (360°)5.8 mphScattered Clouds
3:30 PM66.2 °F50.0 °F56 %30.01 in6.2 miNorth (10°)4.6 mphScattered Clouds
4:00 PM64.4 °F50.0 °F59 %30.01 in6.2 miNorth (10°)5.8 mphMostly Cloudy
4:30 PM66.2 °F50.0 °F56 %30.01 in6.2 miNorth (350°)3.5 mphMostly Cloudy
5:00 PM66.2 °F48.2 °F52 %30.01 in6.2 miNNE (20°)4.6 mphMostly Cloudy
5:30 PM66.2 °F50.0 °F56 %30.01 in6.2 miNNW (340°)4.6 mphMostly Cloudy
6:00 PM66.2 °F48.2 °F52 %30.01 in6.2 miNorth (350°)4.6 mphMostly Cloudy
6:30 PM64.4 °F48.2 °F56 %30.01 inNNE (20°)6.9 mphClear
7:00 PM64.4 °F48.2 °F56 %30.01 inENE (60°)4.6 mphClear
7:30 PM62.6 °F48.2 °F59 %30.01 inNE (50°)3.5 mphClear
8:00 PM60.0 °F48.0 °F55 %30.03 in22.0 miNE (40°)3.5 mphScattered Clouds
8:00 PM60.8 °F48.2 °F63 %30.01 inNE (40°)3.5 mphClear
8:30 PM59.0 °F50.0 °F72 %30.04 inNorth (360°)2.3 mphClear
9:00 PM59.0 °F50.0 °F72 %30.04 inNNE (20°)5.8 mphClear
9:30 PM59.0 °F50.0 °F72 %30.04 inNNE (30°)9.2 mphClear
10:00 PM57.2 °F50.0 °F77 %30.04 inNE (40°)9.2 mphClear
10:30 PM57.2 °F48.2 °F72 %30.04 inNE (40°)9.2 mphClear
11:00 PM55.4 °F48.2 °F77 %30.04 inNE (40°)8.1 mphClear
11:30 PM55.4 °F48.2 °F77 %30.04 inNE (50°)6.9 mphClear
Hourly data recorded from LFQQ, located miles away from Lille, France







STORIES FROM OUR PARTNERS